EW5738 Weather Reports


Display with metric or nautical units.
time (UTC)temp
F
wind
direction
speed
MPH
gust
MPH
rain 1hr
in
rain 24hr
in
rain mn
in
humidity
%
barometer
mb
20260508004540 64 295 2.0 6.0 0.00 0.00 0.00 39 1021.2
20260508003038 63 269 2.0 6.0 0.00 0.00 0.00 37 1021.3
20260508001539 62 178 2.0 8.0 0.00 0.00 0.00 37 1021.6
20260508000033 62 288 2.0 8.0 0.00 0.00 0.00 38 1021.7
20260507234531 61 201 3.0 10.0 0.00 0.00 0.00 36 1021.8
20260507233050 60 203 3.0 7.0 0.00 0.00 0.00 40 1021.9
20260507231531 60 215 2.0 6.0 0.00 0.00 0.00 42 1021.8
20260507230026 59 300 3.0 7.0 0.00 0.00 0.00 43 1021.6
20260507224525 58 257 2.0 8.0 0.00 0.00 0.00 46 1021.6
20260507223023 57 272 3.0 9.0 0.00 0.00 0.00 49 1021.8
20260507221521 56 240 3.0 7.0 0.00 0.00 0.00 54 1021.6
20260507220017 55 310 2.0 7.0 0.00 0.00 0.00 55 1021.5
20260507214517 54 283 4.0 8.0 0.00 0.00 0.00 57 1021.2
20260507213020 53 252 3.0 7.0 0.00 0.00 0.00 56 1021.1
20260507211513 53 298 3.0 7.0 0.00 0.00 0.00 58 1021.0
20260507210010 53 283 5.0 10.0 0.00 0.00 0.00 56 1020.8
20260507204507 53 286 3.0 7.0 0.00 0.00 0.00 57 1020.6
20260507203004 53 269 4.0 7.0 0.00 0.00 0.00 58 1020.5
20260507201504 53 291 4.0 10.0 0.00 0.00 0.00 57 1020.2
20260507200058 54 276 3.0 6.0 0.00 0.00 0.00 59 1020.2
20260507194618 54 269 4.0 7.0 0.00 0.00 0.00 59 1020.1
20260507193051 54 285 4.0 8.0 0.00 0.00 0.00 59 1019.7
20260507191550 54 271 3.0 8.0 0.00 0.00 0.00 59 1019.7
20260507190052 54 248 4.0 8.0 0.00 0.00 0.00 59 1019.5
20260507184543 55 295 4.0 7.0 0.00 0.00 0.00 59 1019.3
20260507183045 55 297 4.0 8.0 0.00 0.00 0.00 58 1019.1
20260507181537 55 283 3.0 8.0 0.00 0.00 0.00 58 1019.0
20260507180037 56 293 4.0 10.0 0.00 0.00 0.00 58 1018.7
20260507174532 56 291 3.0 7.0 0.00 0.00 0.00 59 1018.7
20260507173040 56 228 2.0 5.0 0.00 0.00 0.00 59 1018.5
20260507171539 57 309 3.0 7.0 0.00 0.00 0.00 60 1018.4
20260507170022 57 295 4.0 11.0 0.00 0.00 0.00 60 1018.3
20260507164519 58 311 4.0 9.0 0.00 0.00 0.00 60 1018.4
20260507163019 58 262 2.0 7.0 0.00 0.00 0.00 60 1018.3
20260507161515 58 276 4.0 8.0 0.00 0.00 0.00 60 1018.3
20260507160014 58 305 1.0 7.0 0.00 0.00 0.00 60 1018.4
20260507154512 59 190 3.0 11.0 0.00 0.00 0.00 60 1018.3
20260507153010 59 314 4.0 12.0 0.00 0.00 0.00 62 1018.1
20260507151507 59 283 5.0 10.0 0.00 0.00 0.00 61 1018.1
20260507150003 60 274 5.0 14.0 0.00 0.00 0.00 60 1018.0
20260507144603 61 296 5.0 12.0 0.00 0.00 0.00 58 1018.0
20260507144501 61 272 6.0 13.0 0.00 0.00 0.00 58 1018.1
20260507143110 61 281 8.0 14.0 0.00 0.00 0.00 57 1018.1
20260507141633 61 284 7.0 12.0 0.00 0.00 0.00 57 1018.3
20260507140050 62 240 3.0 10.0 0.00 0.00 0.00 55 1018.3
20260507134549 62 288 4.0 14.0 0.00 0.00 0.00 55 1018.2
20260507133046 63 314 3.0 12.0 0.00 0.00 0.00 54 1018.5
20260507131544 63 290 3.0 10.0 0.00 0.00 0.00 54 1018.4
20260507130040 64 243 6.0 14.0 0.00 0.00 0.00 53 1018.0
20260507124537 64 295 3.0 20.0 0.00 0.00 0.00 51 1018.2
20260507123040 64 238 6.0 13.0 0.00 0.00 0.00 51 1018.0
20260507121533 65 304 5.0 20.0 0.00 0.00 0.00 50 1018.1
20260507120041 65 295 4.0 9.0 0.00 0.00 0.00 50 1018.1
20260507114529 65 274 3.0 16.0 0.00 0.00 0.00 48 1017.5
20260507113039 65 295 4.0 10.0 0.00 0.00 0.00 48 1017.6
20260507111527 66 252 3.0 7.0 0.00 0.00 0.00 48 1017.6
20260507110030 67 295 1.0 15.0 0.00 0.00 0.00 47 1017.5
20260507104525 67 293 3.0 9.0 0.00 0.00 0.00 47 1017.3
20260507103024 67 325 4.0 9.0 0.00 0.00 0.00 47 1017.1
20260507101624 68 286 3.0 13.0 0.00 0.00 0.00 46 1017.1
20260507100030 68 259 5.0 9.0 0.00 0.00 0.00 46 1016.8
20260507094520 69 312 3.0 11.0 0.00 0.00 0.00 45 1016.8
20260507093019 69 231 3.0 7.0 0.00 0.00 0.00 44 1016.7
20260507091522 69 253 1.0 6.0 0.00 0.00 0.00 46 1016.6
20260507090018 70 28 2.0 6.0 0.00 0.00 0.00 45 1016.3
20260507084517 71 252 3.0 9.0 0.00 0.00 0.00 43 1016.2
20260507083016 71 271 3.0 11.0 0.00 0.00 0.00 42 1015.7
20260507081516 71 283 3.0 12.0 0.00 0.00 0.00 42 1015.5
20260507080015 72 288 4.0 11.0 0.00 0.00 0.00 41 1015.3
20260507074526 72 277 4.0 13.0 0.00 0.00 0.00 40 1015.1
20260507073013 73 51 6.0 12.0 0.00 0.00 0.00 41 1015.0
20260507071513 73 284 7.0 13.0 0.00 0.00 0.00 41 1014.8
20260507070013 73 169 2.0 9.0 0.00 0.00 0.00 45 1014.6
20260507064510 74 279 2.0 6.0 0.00 0.00 0.00 44 1014.4
20260507063009 74 257 4.0 11.0 0.00 0.00 0.00 43 1014.4
20260507061510 74 286 6.0 10.0 0.00 0.00 0.00 44 1014.3
20260507060007 75 28 3.0 12.0 0.00 0.00 0.00 45 1014.4
20260507054506 74 230 3.0 9.0 0.00 0.00 0.00 47 1014.4
20260507053005 75 318 5.0 12.0 0.00 0.00 0.00 49 1014.2
20260507051502 75 274 3.0 8.0 0.00 0.00 0.00 52 1014.2
20260507044601 75 252 1.0 10.0 0.00 0.00 0.00 57 1014.1
20260507043058 75 250 5.0 14.0 0.00 0.00 0.00 55 1014.3
20260507041601 75 213 4.0 17.0 0.00 0.00 0.00 57 1014.4
20260507040104 76 283 6.0 13.0 0.00 0.00 0.00 56 1014.5
20260507034610 75 293 7.0 15.0 0.00 0.00 0.00 58 1014.4
20260507033104 76 240 4.0 10.0 0.00 0.00 0.00 59 1014.4
20260507031549 75 164 1.0 12.0 0.00 0.00 0.00 58 1014.6
20260507030047 76 281 8.0 23.0 0.00 0.00 0.00 58 1014.8
20260507024553 77 300 5.0 9.0 0.00 0.00 0.00 60 1014.8
20260507023042 76 309 6.0 14.0 0.00 0.00 0.00 64 1015.0
20260507021539 76 348 7.0 18.0 0.00 0.00 0.00 62 1015.2
20260507020135 76 283 8.0 16.0 0.00 0.00 0.00 64 1015.6
20260507014532 76 279 7.0 17.0 0.00 0.00 0.00 69 1015.8
20260507013029 76 305 7.0 20.0 0.00 0.00 0.00 70 1016.0
20260507011526 75 304 5.0 11.0 0.00 0.00 0.00 73 1016.3